Location: Champignolles
(47.0543°N, 4.5663°E)
Time: 05:07:33
(UTC+00:00)

Cosmos 1933 Rocket - Pass Details

Date: 30 November 2020
Orbit: 606 x 631 km, 82.5° (Epoch: 18 January)

Event Time Altitude Azimuth Distance (km) Brightness Sun altitude
Rises 17:19:06 0° 355° (N) 2,936 6.9 -13.9°
Reaches altitude 10° 17:21:25 10° 1° (N) 2,024 6.0 -14.3°
Maximum altitude 17:25:46 48° 76° (ENE) 831 3.8 -15.0°
Drops below altitude 10° 17:30:04 10° 151° (SSE) 2,002 6.0 -15.7°
Sets 17:32:21 0° 158° (SSE) 2,901 6.9 -16.0°
